Location: Huntsville
(41.2590°N, 111.7678°W)
Time: 20:49:37
(UTC+00:00)

Vanguard 3 - Pass Details

Date: 18 June 2021
Orbit: 508 x 3261 km, 33.4° (Epoch: 28 July)

Event Time Altitude Azimuth Distance (km) Brightness Sun altitude
Rises 16:37:06 0° 250° (WSW) 2,705 9.5 50.2°
Reaches altitude 10° 16:39:09 10° 240° (WSW) 1,931 8.9 50.6°
Maximum altitude 16:43:06 35° 173° (S) 1,185 8.7 51.3°
Drops below altitude 10° 16:48:55 10° 109° (ESE) 2,888 10.8 52.3°
Sets 16:52:40 0° 102° (ESE) 4,299 11.4 53.0°
